Time,TemperatureF,DewpointF,PressureIn,WindDirection,WindDirectionDegrees,WindSpeedMPH,WindSpeedGustMPH,Humidity,HourlyPrecipIn,Conditions,Clouds,dailyrainin,SoftwareType,DateUTC
2013-06-18 00:00:00,46.6,43.0,30.11,WNW,295,2.0,-999.0,88,-99.99,,,0.00,weatherlink.com 1.10,2013-06-18 04:00:00,
2013-06-18 00:15:00,45.0,42.0,30.11,WNW,295,0.0,-999.0,89,-99.99,,,0.00,weatherlink.com 1.10,2013-06-18 04:15:00,
2013-06-18 00:30:00,45.8,43.0,30.12,WNW,295,0.0,-999.0,91,-99.99,,,0.00,weatherlink.com 1.10,2013-06-18 04:30:00,
2013-06-18 00:45:00,45.7,44.0,30.12,WNW,295,0.0,-999.0,92,-99.99,,,0.00,weatherlink.com 1.10,2013-06-18 04:45:00,
2013-06-18 01:00:00,46.6,45.0,30.12,NW,325,0.0,-999.0,93,-99.99,,,0.00,weatherlink.com 1.10,2013-06-18 05:00:00,
2013-06-18 01:15:00,46.2,44.0,30.12,NW,325,0.0,-999.0,93,-99.99,,,0.00,weatherlink.com 1.10,2013-06-18 05:15:00,
2013-06-18 01:30:00,45.0,43.0,30.12,NW,325,0.0,-999.0,92,-99.99,,,0.00,weatherlink.com 1.10,2013-06-18 05:30:00,
2013-06-18 01:45:00,43.8,42.0,30.13,NW,325,0.0,-999.0,92,-99.99,,,0.00,weatherlink.com 1.10,2013-06-18 05:45:00,
2013-06-18 02:00:00,43.3,42.0,30.13,NW,325,0.0,-999.0,93,-99.99,,,0.00,weatherlink.com 1.10,2013-06-18 06:00:00,
2013-06-18 02:16:00,43.3,42.0,30.14,NW,325,0.0,-999.0,94,-99.99,,,0.00,weatherlink.com 1.10,2013-06-18 06:16:00,
2013-06-18 02:31:00,46.9,45.0,30.13,ENE,63,3.0,-999.0,93,-99.99,,,0.00,weatherlink.com 1.10,2013-06-18 06:31:00,
2013-06-18 02:46:00,48.3,44.0,30.13,ENE,62,4.0,-999.0,84,-99.99,,,0.00,weatherlink.com 1.10,2013-06-18 06:46:00,
2013-06-18 03:01:00,49.6,44.0,30.12,ENE,60,3.0,-999.0,80,-99.99,,,0.00,weatherlink.com 1.10,2013-06-18 07:01:00,
2013-06-18 03:16:00,49.2,43.0,30.13,NE,49,2.0,-999.0,79,-99.99,,,0.00,weatherlink.com 1.10,2013-06-18 07:16:00,
2013-06-18 03:31:00,48.9,42.0,30.13,NE,53,0.0,-999.0,78,-99.99,,,0.00,weatherlink.com 1.10,2013-06-18 07:31:00,
2013-06-18 03:46:00,47.7,42.0,30.13,NE,50,2.0,-999.0,81,-99.99,,,0.00,weatherlink.com 1.10,2013-06-18 07:46:00,
2013-06-18 04:01:00,48.3,42.0,30.13,NE,48,1.0,-999.0,79,-99.99,,,0.00,weatherlink.com 1.10,2013-06-18 08:01:00,
2013-06-18 04:16:00,48.1,42.0,30.14,NE,49,3.0,-999.0,78,-99.99,,,0.00,weatherlink.com 1.10,2013-06-18 08:16:00,
2013-06-18 04:31:00,48.7,42.0,30.14,NE,49,4.0,-999.0,77,-99.99,,,0.00,weatherlink.com 1.10,2013-06-18 08:31:00,
2013-06-18 04:46:00,47.8,41.0,30.14,NE,49,2.0,-999.0,77,-99.99,,,0.00,weatherlink.com 1.10,2013-06-18 08:46:00,
2013-06-18 05:01:00,45.4,40.0,30.15,NE,49,0.0,-999.0,81,-99.99,,,0.00,weatherlink.com 1.10,2013-06-18 09:01:00,
2013-06-18 05:16:00,43.4,39.0,30.15,NE,49,0.0,-999.0,84,-99.99,,,0.00,weatherlink.com 1.10,2013-06-18 09:16:00,
2013-06-18 05:31:00,44.2,40.0,30.16,NE,49,1.0,-999.0,84,-99.99,,,0.00,weatherlink.com 1.10,2013-06-18 09:31:00,
2013-06-18 05:46:00,40.7,36.0,30.17,NE,49,0.0,-999.0,84,-99.99,,,0.00,weatherlink.com 1.10,2013-06-18 09:46:00,
2013-06-18 06:01:00,40.5,38.0,30.18,NE,49,0.0,-999.0,89,-99.99,,,0.00,weatherlink.com 1.10,2013-06-18 10:01:00,
2013-06-18 06:16:00,40.9,38.0,30.18,NE,49,0.0,-999.0,90,-99.99,,,0.00,weatherlink.com 1.10,2013-06-18 10:16:00,
2013-06-18 06:31:00,41.7,39.0,30.19,NE,49,0.0,-999.0,90,-99.99,,,0.00,weatherlink.com 1.10,2013-06-18 10:31:00,
2013-06-18 06:46:00,41.6,39.0,30.19,NE,49,0.0,-999.0,90,-99.99,,,0.00,weatherlink.com 1.10,2013-06-18 10:46:00,
2013-06-18 07:01:00,44.5,42.0,30.19,NE,49,0.0,-999.0,91,-99.99,,,0.00,weatherlink.com 1.10,2013-06-18 11:01:00,
2013-06-18 07:16:00,47.0,44.0,30.19,NE,49,0.0,-999.0,90,-99.99,,,0.00,weatherlink.com 1.10,2013-06-18 11:16:00,
2013-06-18 07:31:00,49.6,46.0,30.20,NE,49,0.0,-999.0,88,-99.99,,,0.00,weatherlink.com 1.10,2013-06-18 11:31:00,
2013-06-18 07:46:00,51.4,47.0,30.20,NE,49,2.0,-999.0,85,-99.99,,,0.00,weatherlink.com 1.10,2013-06-18 11:46:00,
2013-06-18 08:01:00,52.8,48.0,30.20,NE,49,0.0,-999.0,83,-99.99,,,0.00,weatherlink.com 1.10,2013-06-18 12:01:00,
2013-06-18 08:16:00,55.6,46.0,30.20,NE,49,1.0,-999.0,71,-99.99,,,0.00,weatherlink.com 1.10,2013-06-18 12:16:00,
2013-06-18 08:31:00,57.7,45.0,30.20,East,83,2.0,-999.0,62,-99.99,,,0.00,weatherlink.com 1.10,2013-06-18 12:31:00,
2013-06-18 08:46:00,57.4,46.0,30.20,SSW,202,2.0,-999.0,67,-99.99,,,0.00,weatherlink.com 1.10,2013-06-18 12:46:00,
2013-06-18 09:01:00,59.0,44.0,30.20,SSW,196,2.0,-999.0,59,-99.99,,,0.00,weatherlink.com 1.10,2013-06-18 13:01:00,
2013-06-18 09:16:00,60.8,42.0,30.21,East,83,2.0,-999.0,51,-99.99,,,0.00,weatherlink.com 1.10,2013-06-18 13:16:00,
2013-06-18 09:32:00,61.6,42.0,30.21,East,84,0.0,-999.0,49,-99.99,,,0.00,weatherlink.com 1.10,2013-06-18 13:32:00,
2013-06-18 09:47:00,61.8,43.0,30.21,East,86,0.0,-999.0,50,-99.99,,,0.00,weatherlink.com 1.10,2013-06-18 13:47:00,
2013-06-18 10:02:00,62.9,43.0,30.21,NE,51,2.0,-999.0,48,-99.99,,,0.00,weatherlink.com 1.10,2013-06-18 14:02:00,
2013-06-18 10:17:00,63.7,43.0,30.21,ESE,105,3.0,-999.0,48,-99.99,,,0.00,weatherlink.com 1.10,2013-06-18 14:17:00,
2013-06-18 10:32:00,63.7,42.0,30.21,ENE,59,7.0,-999.0,46,-99.99,,,0.00,weatherlink.com 1.10,2013-06-18 14:32:00,
2013-06-18 10:47:00,64.2,44.0,30.20,NE,53,3.0,-999.0,49,-99.99,,,0.00,weatherlink.com 1.10,2013-06-18 14:47:00,
2013-06-18 11:02:00,64.7,40.0,30.21,NE,36,2.0,-999.0,41,-99.99,,,0.00,weatherlink.com 1.10,2013-06-18 15:02:00,
2013-06-18 11:17:00,65.3,40.0,30.21,NE,49,5.0,-999.0,40,-99.99,,,0.00,weatherlink.com 1.10,2013-06-18 15:17:00,
2013-06-18 11:32:00,65.4,43.0,30.20,NE,34,7.0,-999.0,44,-99.99,,,0.00,weatherlink.com 1.10,2013-06-18 15:32:00,
2013-06-18 11:47:00,66.0,44.0,30.20,East,87,4.0,-999.0,45,-99.99,,,0.00,weatherlink.com 1.10,2013-06-18 15:47:00,
2013-06-18 12:02:00,66.9,45.0,30.20,NNE,30,16.0,-999.0,46,-99.99,,,0.00,weatherlink.com 1.10,2013-06-18 16:02:00,
2013-06-18 12:17:00,67.6,44.0,30.20,NE,34,8.0,-999.0,42,-99.99,,,0.00,weatherlink.com 1.10,2013-06-18 16:17:00,
2013-06-18 12:32:00,68.0,41.0,30.19,North,351,4.0,-999.0,37,-99.99,,,0.00,weatherlink.com 1.10,2013-06-18 16:32:00,
2013-06-18 12:47:00,67.3,41.0,30.20,ENE,67,4.0,-999.0,38,-99.99,,,0.00,weatherlink.com 1.10,2013-06-18 16:47:00,
2013-06-18 13:02:00,67.8,44.0,30.19,ENE,61,0.0,-999.0,43,-99.99,,,0.00,weatherlink.com 1.10,2013-06-18 17:02:00,
2013-06-18 13:17:00,68.4,46.0,30.19,North,355,11.0,-999.0,44,-99.99,,,0.00,weatherlink.com 1.10,2013-06-18 17:17:00,
2013-06-18 13:32:00,68.5,41.0,30.18,NNE,19,0.0,-999.0,37,-99.99,,,0.00,weatherlink.com 1.10,2013-06-18 17:32:00,
2013-06-18 13:47:00,68.8,43.0,30.18,ESE,103,3.0,-999.0,40,-99.99,,,0.00,weatherlink.com 1.10,2013-06-18 17:47:00,
2013-06-18 14:02:00,69.2,44.0,30.17,NE,36,7.0,-999.0,40,-99.99,,,0.00,weatherlink.com 1.10,2013-06-18 18:02:00,
2013-06-18 14:17:00,67.1,42.0,30.17,North,9,9.0,-999.0,41,-99.99,,,0.00,weatherlink.com 1.10,2013-06-18 18:17:00,
2013-06-18 14:32:00,69.3,41.0,30.16,SSW,200,3.0,-999.0,36,-99.99,,,0.00,weatherlink.com 1.10,2013-06-18 18:32:00,
2013-06-18 14:47:00,68.6,42.0,30.16,NNE,26,4.0,-999.0,38,-99.99,,,0.00,weatherlink.com 1.10,2013-06-18 18:47:00,
2013-06-18 15:02:00,68.4,44.0,30.16,NNE,15,5.0,-999.0,42,-99.99,,,0.00,weatherlink.com 1.10,2013-06-18 19:02:00,
2013-06-18 15:17:00,68.6,44.0,30.16,WNW,300,5.0,-999.0,41,-99.99,,,0.00,weatherlink.com 1.10,2013-06-18 19:17:00,
2013-06-18 15:32:00,69.7,45.0,30.15,NW,310,6.0,-999.0,42,-99.99,,,0.00,weatherlink.com 1.10,2013-06-18 19:32:00,
2013-06-18 15:47:00,69.7,48.0,30.15,NW,308,4.0,-999.0,47,-99.99,,,0.00,weatherlink.com 1.10,2013-06-18 19:47:00,
2013-06-18 16:02:00,70.2,49.0,30.15,WNW,292,8.0,-999.0,47,-99.99,,,0.00,weatherlink.com 1.10,2013-06-18 20:02:00,
2013-06-18 16:17:00,69.1,46.0,30.16,WNW,291,5.0,-999.0,43,-99.99,,,0.00,weatherlink.com 1.10,2013-06-18 20:17:00,
2013-06-18 16:32:00,69.4,47.0,30.15,West,276,14.0,-999.0,45,-99.99,,,0.00,weatherlink.com 1.10,2013-06-18 20:32:00,
2013-06-18 17:02:00,68.5,46.0,30.16,WNW,291,7.0,-999.0,45,-99.99,,,0.00,weatherlink.com 1.10,2013-06-18 21:02:00,
2013-06-18 17:17:00,68.6,46.0,30.15,WNW,298,15.0,-999.0,44,-99.99,,,0.00,weatherlink.com 1.10,2013-06-18 21:17:00,
2013-06-18 17:32:00,68.0,45.0,30.16,West,275,9.0,-999.0,44,-99.99,,,0.00,weatherlink.com 1.10,2013-06-18 21:32:00,
2013-06-18 17:47:00,67.6,45.0,30.16,West,281,14.0,-999.0,45,-99.99,,,0.00,weatherlink.com 1.10,2013-06-18 21:47:00,
2013-06-18 18:02:00,66.8,43.0,30.16,NNW,333,8.0,-999.0,42,-99.99,,,0.00,weatherlink.com 1.10,2013-06-18 22:02:00,
2013-06-18 18:17:00,66.7,45.0,30.16,NW,313,6.0,-999.0,45,-99.99,,,0.00,weatherlink.com 1.10,2013-06-18 22:17:00,
2013-06-18 18:32:00,66.6,44.0,30.16,WNW,290,9.0,-999.0,45,-99.99,,,0.00,weatherlink.com 1.10,2013-06-18 22:32:00,
2013-06-18 18:47:00,66.3,44.0,30.16,NW,309,10.0,-999.0,45,-99.99,,,0.00,weatherlink.com 1.10,2013-06-18 22:47:00,
2013-06-18 19:18:00,65.1,44.0,30.16,WNW,292,7.0,-999.0,46,-99.99,,,0.00,weatherlink.com 1.10,2013-06-18 23:18:00,
2013-06-18 19:33:00,64.5,43.0,30.17,NW,315,2.0,-999.0,46,-99.99,,,0.00,weatherlink.com 1.10,2013-06-18 23:33:00,
2013-06-18 19:48:00,64.3,44.0,30.17,WNW,291,2.0,-999.0,48,-99.99,,,0.00,weatherlink.com 1.10,2013-06-18 23:48:00,
2013-06-18 20:18:00,62.8,43.0,30.17,NW,312,6.0,-999.0,49,-99.99,,,0.00,weatherlink.com 1.10,2013-06-19 00:18:00,
2013-06-18 20:33:00,61.7,43.0,30.17,WNW,283,4.0,-999.0,51,-99.99,,,0.00,weatherlink.com 1.10,2013-06-19 00:33:00,
2013-06-18 20:48:00,60.2,43.0,30.17,WNW,302,2.0,-999.0,54,-99.99,,,0.00,weatherlink.com 1.10,2013-06-19 00:48:00,
2013-06-18 21:03:00,58.5,44.0,30.17,WNW,302,2.0,-999.0,59,-99.99,,,0.00,weatherlink.com 1.10,2013-06-19 01:03:00,
2013-06-18 21:18:00,56.4,42.0,30.18,WNW,301,0.0,-999.0,59,-99.99,,,0.00,weatherlink.com 1.10,2013-06-19 01:18:00,
2013-06-18 21:33:00,55.4,42.0,30.18,WNW,299,0.0,-999.0,61,-99.99,,,0.00,weatherlink.com 1.10,2013-06-19 01:33:00,
2013-06-18 21:48:00,54.4,42.0,30.18,WNW,299,1.0,-999.0,63,-99.99,,,0.00,weatherlink.com 1.10,2013-06-19 01:48:00,
2013-06-18 22:03:00,52.6,42.0,30.18,WNW,299,0.0,-999.0,67,-99.99,,,0.00,weatherlink.com 1.10,2013-06-19 02:03:00,
2013-06-18 22:18:00,50.4,42.0,30.19,WNW,299,0.0,-999.0,73,-99.99,,,0.00,weatherlink.com 1.10,2013-06-19 02:18:00,
2013-06-18 22:33:00,48.9,42.0,30.20,WNW,299,0.0,-999.0,76,-99.99,,,0.00,weatherlink.com 1.10,2013-06-19 02:33:00,
2013-06-18 22:48:00,47.9,42.0,30.20,WNW,299,2.0,-999.0,81,-99.99,,,0.00,weatherlink.com 1.10,2013-06-19 02:48:00,
2013-06-18 23:03:00,47.3,42.0,30.20,WNW,299,0.0,-999.0,81,-99.99,,,0.00,weatherlink.com 1.10,2013-06-19 03:03:00,
2013-06-18 23:18:00,45.0,40.0,30.20,WNW,299,0.0,-999.0,83,-99.99,,,0.00,weatherlink.com 1.10,2013-06-19 03:18:00,
2013-06-18 23:33:00,43.9,40.0,30.20,WNW,299,0.0,-999.0,86,-99.99,,,0.00,weatherlink.com 1.10,2013-06-19 03:33:00,
2013-06-18 23:48:00,43.2,40.0,30.20,WNW,299,0.0,-999.0,87,-99.99,,,0.00,weatherlink.com 1.10,2013-06-19 03:48:00,